Time,TemperatureF,DewpointF,PressureIn,WindDirection,WindDirectionDegrees,WindSpeedMPH,WindSpeedGustMPH,Humidity,HourlyPrecipIn,Conditions,Clouds,dailyrainin,SoftwareType,DateUTC
2013-02-15 00:05:00,31.5,24.2,30.56,South,187,0.0,1.0,74,0.00,,,0.00,Wunderground v.1.15,2013-02-15 07:05:00,
2013-02-15 00:10:00,31.9,24.2,30.56,NNW,327,0.0,0.0,73,0.00,,,0.00,Wunderground v.1.15,2013-02-15 07:10:00,
2013-02-15 00:16:00,31.4,24.1,30.56,NNW,327,0.0,0.0,74,0.00,,,0.00,Wunderground v.1.15,2013-02-15 07:16:00,
2013-02-15 00:22:00,31.6,23.6,30.56,NW,326,0.0,0.0,72,0.00,,,0.00,Wunderground v.1.15,2013-02-15 07:22:00,
2013-02-15 00:28:00,31.5,23.8,30.56,NW,326,0.0,0.0,73,0.00,,,0.00,Wunderground v.1.15,2013-02-15 07:28:00,
2013-02-15 00:34:00,31.2,23.9,30.56,NNW,346,0.0,0.0,74,0.00,,,0.00,Wunderground v.1.15,2013-02-15 07:34:00,
2013-02-15 00:40:00,30.6,23.3,30.56,NNW,346,0.0,0.0,74,0.00,,,0.00,Wunderground v.1.15,2013-02-15 07:40:00,
2013-02-15 00:45:00,30.3,23.3,30.56,NNW,346,0.0,0.0,75,0.00,,,0.00,Wunderground v.1.15,2013-02-15 07:45:00,
2013-02-15 00:50:00,29.7,23.1,30.56,NNW,346,0.0,0.0,76,0.00,,,0.00,Wunderground v.1.15,2013-02-15 07:50:00,
2013-02-15 00:56:00,29.5,23.2,30.56,NNW,346,0.0,0.0,77,0.00,,,0.00,Wunderground v.1.15,2013-02-15 07:56:00,
2013-02-15 01:01:00,29.4,22.8,30.56,NNW,346,0.0,0.0,76,0.00,,,0.00,Wunderground v.1.15,2013-02-15 08:01:00,
2013-02-15 01:07:00,29.4,23.1,30.56,NNW,346,0.0,1.0,77,0.00,,,0.00,Wunderground v.1.15,2013-02-15 08:07:00,
2013-02-15 01:13:00,29.9,23.3,30.56,NNW,346,0.0,0.0,76,0.00,,,0.00,Wunderground v.1.15,2013-02-15 08:13:00,
2013-02-15 01:19:00,30.1,22.8,30.56,NNW,346,0.0,0.0,74,0.00,,,0.00,Wunderground v.1.15,2013-02-15 08:19:00,
2013-02-15 01:25:00,29.9,23.3,30.56,NNW,346,0.0,0.0,76,0.00,,,0.00,Wunderground v.1.15,2013-02-15 08:25:00,
2013-02-15 01:31:00,30.3,23.3,30.55,NNW,346,0.0,0.0,75,0.00,,,0.00,Wunderground v.1.15,2013-02-15 08:31:00,
2013-02-15 01:37:00,30.5,23.5,30.56,NNW,346,0.0,1.0,75,0.00,,,0.00,Wunderground v.1.15,2013-02-15 08:37:00,
2013-02-15 01:43:00,30.4,23.7,30.56,NNW,346,0.0,1.0,76,0.00,,,0.00,Wunderground v.1.15,2013-02-15 08:43:00,
2013-02-15 01:49:00,30.2,23.5,30.56,NNW,346,0.0,1.0,76,0.00,,,0.00,Wunderground v.1.15,2013-02-15 08:49:00,
2013-02-15 01:55:00,30.3,23.6,30.57,NNW,346,0.0,1.0,76,0.00,,,0.00,Wunderground v.1.15,2013-02-15 08:55:00,
2013-02-15 02:01:00,30.2,24.2,30.57,NNW,346,0.0,0.0,78,0.00,,,0.00,Wunderground v.1.15,2013-02-15 09:01:00,
2013-02-15 02:06:00,30.1,23.8,30.56,NNW,346,0.0,1.0,77,0.00,,,0.00,Wunderground v.1.15,2013-02-15 09:06:00,
2013-02-15 02:12:00,30.2,24.2,30.57,NNW,346,0.0,1.0,78,0.00,,,0.00,Wunderground v.1.15,2013-02-15 09:12:00,
2013-02-15 02:18:00,30.2,24.5,30.56,NNW,346,0.0,2.0,79,0.00,,,0.00,Wunderground v.1.15,2013-02-15 09:18:00,
2013-02-15 02:23:00,30.2,24.2,30.57,NNW,346,0.0,2.0,78,0.00,,,0.00,Wunderground v.1.15,2013-02-15 09:23:00,
2013-02-15 02:29:00,30.3,24.0,30.57,NNW,346,0.0,2.0,77,0.00,,,0.00,Wunderground v.1.15,2013-02-15 09:29:00,
2013-02-15 02:35:00,30.3,24.0,30.56,NNW,346,0.0,0.0,77,0.00,,,0.00,Wunderground v.1.15,2013-02-15 09:35:00,
2013-02-15 02:40:00,30.1,24.4,30.57,NNW,346,0.0,0.0,79,0.00,,,0.00,Wunderground v.1.15,2013-02-15 09:40:00,
2013-02-15 02:46:00,29.3,24.2,30.57,NNW,346,0.0,0.0,81,0.00,,,0.00,Wunderground v.1.15,2013-02-15 09:46:00,
2013-02-15 02:52:00,29.1,23.4,30.57,NNW,346,0.0,0.0,79,0.00,,,0.00,Wunderground v.1.15,2013-02-15 09:52:00,
2013-02-15 02:57:00,29.1,23.7,30.57,NNW,346,0.0,0.0,80,0.00,,,0.00,Wunderground v.1.15,2013-02-15 09:57:00,
2013-02-15 03:03:00,29.0,23.9,30.57,NNW,346,0.0,0.0,81,0.00,,,0.00,Wunderground v.1.15,2013-02-15 10:03:00,
2013-02-15 03:09:00,29.0,23.9,30.57,NNW,346,0.0,0.0,81,0.00,,,0.00,Wunderground v.1.15,2013-02-15 10:09:00,
2013-02-15 03:14:00,29.0,24.2,30.57,NNW,346,0.0,0.0,82,0.00,,,0.00,Wunderground v.1.15,2013-02-15 10:14:00,
2013-02-15 03:20:00,29.0,23.6,30.57,NNW,346,0.0,0.0,80,0.00,,,0.00,Wunderground v.1.15,2013-02-15 10:20:00,
2013-02-15 03:25:00,29.1,23.7,30.57,NNW,346,0.0,0.0,80,0.00,,,0.00,Wunderground v.1.15,2013-02-15 10:25:00,
2013-02-15 03:31:00,28.9,23.5,30.57,NNW,346,0.0,0.0,80,0.00,,,0.00,Wunderground v.1.15,2013-02-15 10:31:00,
2013-02-15 03:37:00,28.7,23.0,30.57,NNW,346,0.0,0.0,79,0.00,,,0.00,Wunderground v.1.15,2013-02-15 10:37:00,
2013-02-15 03:42:00,28.3,23.2,30.57,NNW,346,0.0,0.0,81,0.00,,,0.00,Wunderground v.1.15,2013-02-15 10:42:00,
2013-02-15 03:48:00,27.8,22.4,30.57,NNW,346,0.0,2.0,80,0.00,,,0.00,Wunderground v.1.15,2013-02-15 10:48:00,
2013-02-15 03:54:00,27.4,22.6,30.57,NNW,346,1.0,2.0,82,0.00,,,0.00,Wunderground v.1.15,2013-02-15 10:54:00,
2013-02-15 04:00:00,27.6,22.5,30.57,NW,319,1.0,1.0,81,0.00,,,0.00,Wunderground v.1.15,2013-02-15 11:00:00,
2013-02-15 04:06:00,27.4,22.3,30.57,NW,319,1.0,2.0,81,0.00,,,0.00,Wunderground v.1.15,2013-02-15 11:06:00,
2013-02-15 04:11:00,27.1,22.3,30.58,NW,319,1.0,1.0,82,0.00,,,0.00,Wunderground v.1.15,2013-02-15 11:11:00,
2013-02-15 04:17:00,26.9,22.1,30.58,NW,315,1.0,2.0,82,0.00,,,0.00,Wunderground v.1.15,2013-02-15 11:17:00,
2013-02-15 04:23:00,26.9,22.4,30.58,NW,315,1.0,2.0,83,0.00,,,0.00,Wunderground v.1.15,2013-02-15 11:23:00,
2013-02-15 04:28:00,26.9,22.4,30.58,NW,315,1.0,2.0,83,0.00,,,0.00,Wunderground v.1.15,2013-02-15 11:28:00,
2013-02-15 04:34:00,27.0,22.5,30.58,NW,315,0.0,1.0,83,0.00,,,0.00,Wunderground v.1.15,2013-02-15 11:34:00,
2013-02-15 04:40:00,26.5,22.0,30.59,NW,315,0.0,0.0,83,0.00,,,0.00,Wunderground v.1.15,2013-02-15 11:40:00,
2013-02-15 04:46:00,26.3,22.4,30.59,NW,315,0.0,0.0,85,0.00,,,0.00,Wunderground v.1.15,2013-02-15 11:46:00,
2013-02-15 04:51:00,26.3,22.4,30.59,NW,315,0.0,0.0,85,0.00,,,0.00,Wunderground v.1.15,2013-02-15 11:51:00,
2013-02-15 04:57:00,26.3,22.4,30.59,NW,315,0.0,0.0,85,0.00,,,0.00,Wunderground v.1.15,2013-02-15 11:57:00,
2013-02-15 05:03:00,25.4,21.5,30.59,NW,315,0.0,0.0,85,0.00,,,0.00,Wunderground v.1.15,2013-02-15 12:03:00,
2013-02-15 05:09:00,25.7,22.1,30.59,NW,315,0.0,0.0,86,0.00,,,0.00,Wunderground v.1.15,2013-02-15 12:09:00,
2013-02-15 05:14:00,26.1,21.9,30.59,NW,315,0.0,0.0,84,0.00,,,0.00,Wunderground v.1.15,2013-02-15 12:14:00,
2013-02-15 05:20:00,26.1,22.2,30.59,NW,315,0.0,0.0,85,0.00,,,0.00,Wunderground v.1.15,2013-02-15 12:20:00,
2013-02-15 05:26:00,25.6,21.7,30.59,NW,315,0.0,0.0,85,0.00,,,0.00,Wunderground v.1.15,2013-02-15 12:26:00,
2013-02-15 05:32:00,25.7,22.1,30.59,NW,315,0.0,0.0,86,0.00,,,0.00,Wunderground v.1.15,2013-02-15 12:32:00,
2013-02-15 05:38:00,25.3,21.4,30.59,NW,315,0.0,0.0,85,0.00,,,0.00,Wunderground v.1.15,2013-02-15 12:38:00,
2013-02-15 05:43:00,24.9,21.0,30.59,NW,315,0.0,0.0,85,0.00,,,0.00,Wunderground v.1.15,2013-02-15 12:43:00,
2013-02-15 05:49:00,25.1,21.5,30.59,NW,315,0.0,0.0,86,0.00,,,0.00,Wunderground v.1.15,2013-02-15 12:49:00,
2013-02-15 05:54:00,25.3,21.7,30.59,NW,315,0.0,0.0,86,0.00,,,0.00,Wunderground v.1.15,2013-02-15 12:54:00,
2013-02-15 06:00:00,24.6,20.7,30.59,NW,315,0.0,0.0,85,0.00,,,0.00,Wunderground v.1.15,2013-02-15 13:00:00,
2013-02-15 06:06:00,25.1,21.8,30.59,NW,315,0.0,0.0,87,0.00,,,0.00,Wunderground v.1.15,2013-02-15 13:06:00,
2013-02-15 06:11:00,25.3,21.7,30.59,NW,315,0.0,0.0,86,0.00,,,0.00,Wunderground v.1.15,2013-02-15 13:11:00,
2013-02-15 06:17:00,24.9,21.3,30.59,NW,315,0.0,0.0,86,0.00,,,0.00,Wunderground v.1.15,2013-02-15 13:17:00,
2013-02-15 06:22:00,25.2,21.9,30.59,NW,315,0.0,0.0,87,0.00,,,0.00,Wunderground v.1.15,2013-02-15 13:22:00,
2013-02-15 06:28:00,24.7,21.1,30.59,NW,315,0.0,2.0,86,0.00,,,0.00,Wunderground v.1.15,2013-02-15 13:28:00,
2013-02-15 06:34:00,24.7,21.4,30.59,NW,315,0.0,1.0,87,0.00,,,0.00,Wunderground v.1.15,2013-02-15 13:34:00,
2013-02-15 06:39:00,24.7,21.1,30.59,NW,315,0.0,1.0,86,0.00,,,0.00,Wunderground v.1.15,2013-02-15 13:39:00,
2013-02-15 06:45:00,24.9,21.6,30.59,NW,315,0.0,0.0,87,0.00,,,0.00,Wunderground v.1.15,2013-02-15 13:45:00,
2013-02-15 06:51:00,25.2,21.9,30.59,NW,315,0.0,0.0,87,0.00,,,0.00,Wunderground v.1.15,2013-02-15 13:51:00,
2013-02-15 06:56:00,24.9,21.6,30.59,NW,315,0.0,0.0,87,0.00,,,0.00,Wunderground v.1.15,2013-02-15 13:56:00,
2013-02-15 07:02:00,24.3,20.7,30.59,NW,315,0.0,0.0,86,0.00,,,0.00,Wunderground v.1.15,2013-02-15 14:02:00,
2013-02-15 07:08:00,24.7,21.4,30.59,NW,315,0.0,0.0,87,0.00,,,0.00,Wunderground v.1.15,2013-02-15 14:08:00,
2013-02-15 07:13:00,25.4,22.3,30.59,NW,315,0.0,0.0,88,0.00,,,0.00,Wunderground v.1.15,2013-02-15 14:13:00,
2013-02-15 07:19:00,25.5,21.9,30.59,NW,315,0.0,0.0,86,0.00,,,0.00,Wunderground v.1.15,2013-02-15 14:19:00,
2013-02-15 07:24:00,25.5,22.2,30.59,NW,315,0.0,0.0,87,0.00,,,0.00,Wunderground v.1.15,2013-02-15 14:24:00,
2013-02-15 07:30:00,25.5,21.9,30.58,NW,315,0.0,0.0,86,0.00,,,0.00,Wunderground v.1.15,2013-02-15 14:30:00,
2013-02-15 07:36:00,25.7,22.1,30.58,NW,315,0.0,0.0,86,0.00,,,0.00,Wunderground v.1.15,2013-02-15 14:36:00,
2013-02-15 07:41:00,25.6,22.3,30.58,NW,315,0.0,0.0,87,0.00,,,0.00,Wunderground v.1.15,2013-02-15 14:41:00,
2013-02-15 07:47:00,25.4,22.1,30.58,NW,315,0.0,0.0,87,0.00,,,0.00,Wunderground v.1.15,2013-02-15 14:47:00,
2013-02-15 07:53:00,25.6,22.3,30.59,NW,315,0.0,0.0,87,0.00,,,0.00,Wunderground v.1.15,2013-02-15 14:53:00,
2013-02-15 07:58:00,25.1,21.5,30.59,NW,315,0.0,0.0,86,0.00,,,0.00,Wunderground v.1.15,2013-02-15 14:58:00,
2013-02-15 08:04:00,25.1,21.8,30.59,NW,315,0.0,0.0,87,0.00,,,0.00,Wunderground v.1.15,2013-02-15 15:04:00,
2013-02-15 08:10:00,25.6,22.3,30.59,NW,315,0.0,1.0,87,0.00,,,0.00,Wunderground v.1.15,2013-02-15 15:10:00,
2013-02-15 08:15:00,25.4,22.1,30.59,NW,315,0.0,1.0,87,0.00,,,0.00,Wunderground v.1.15,2013-02-15 15:15:00,
2013-02-15 08:21:00,25.4,22.1,30.59,NW,315,0.0,0.0,87,0.00,,,0.00,Wunderground v.1.15,2013-02-15 15:21:00,
2013-02-15 08:27:00,26.0,22.7,30.59,NW,315,0.0,0.0,87,0.00,,,0.00,Wunderground v.1.15,2013-02-15 15:27:00,
2013-02-15 08:32:00,26.1,22.8,30.59,NW,315,0.0,0.0,87,0.00,,,0.00,Wunderground v.1.15,2013-02-15 15:32:00,
2013-02-15 08:38:00,26.2,22.9,30.59,NW,315,0.0,0.0,87,0.00,,,0.00,Wunderground v.1.15,2013-02-15 15:38:00,
2013-02-15 08:44:00,26.4,23.1,30.59,NW,315,0.0,0.0,87,0.00,,,0.00,Wunderground v.1.15,2013-02-15 15:44:00,
2013-02-15 08:49:00,26.7,23.4,30.59,NW,315,0.0,0.0,87,0.00,,,0.00,Wunderground v.1.15,2013-02-15 15:49:00,
2013-02-15 08:55:00,26.8,23.2,30.59,NW,315,0.0,0.0,86,0.00,,,0.00,Wunderground v.1.15,2013-02-15 15:55:00,
2013-02-15 09:01:00,27.0,23.4,30.59,NW,315,0.0,0.0,86,0.00,,,0.00,Wunderground v.1.15,2013-02-15 16:01:00,
2013-02-15 09:07:00,27.2,23.6,30.59,NW,315,0.0,0.0,86,0.00,,,0.00,Wunderground v.1.15,2013-02-15 16:07:00,
2013-02-15 09:12:00,27.4,23.8,30.59,NW,315,0.0,0.0,86,0.00,,,0.00,Wunderground v.1.15,2013-02-15 16:12:00,
2013-02-15 09:18:00,27.7,24.1,30.59,NW,315,0.0,0.0,86,0.00,,,0.00,Wunderground v.1.15,2013-02-15 16:18:00,
2013-02-15 09:24:00,27.8,23.9,30.60,NW,315,0.0,0.0,85,0.00,,,0.00,Wunderground v.1.15,2013-02-15 16:24:00,
2013-02-15 09:29:00,28.0,24.1,30.60,NW,315,0.0,0.0,85,0.00,,,0.00,Wunderground v.1.15,2013-02-15 16:29:00,
2013-02-15 09:35:00,28.5,24.6,30.59,NW,315,0.0,1.0,85,0.00,,,0.00,Wunderground v.1.15,2013-02-15 16:35:00,
2013-02-15 09:41:00,28.9,24.7,30.59,WNW,284,1.0,1.0,84,0.00,,,0.00,Wunderground v.1.15,2013-02-15 16:41:00,
2013-02-15 09:47:00,29.1,25.2,30.59,WNW,284,0.0,1.0,85,0.00,,,0.00,Wunderground v.1.15,2013-02-15 16:47:00,
2013-02-15 09:52:00,29.4,25.4,30.59,WNW,284,0.0,1.0,85,0.00,,,0.00,Wunderground v.1.15,2013-02-15 16:52:00,
2013-02-15 09:58:00,29.5,24.1,30.59,West,271,0.0,2.0,80,0.00,,,0.00,Wunderground v.1.15,2013-02-15 16:58:00,
2013-02-15 10:04:00,29.7,24.6,30.59,West,271,0.0,1.0,81,0.00,,,0.00,Wunderground v.1.15,2013-02-15 17:04:00,
2013-02-15 10:10:00,29.8,24.4,30.58,West,271,0.0,0.0,80,0.00,,,0.00,Wunderground v.1.15,2013-02-15 17:10:00,
2013-02-15 10:15:00,29.9,23.9,30.58,West,271,0.0,0.0,78,0.00,,,0.00,Wunderground v.1.15,2013-02-15 17:15:00,
2013-02-15 10:21:00,30.1,24.1,30.58,West,271,0.0,0.0,78,0.00,,,0.00,Wunderground v.1.15,2013-02-15 17:21:00,
2013-02-15 10:26:00,30.4,24.7,30.58,West,271,0.0,0.0,79,0.00,,,0.00,Wunderground v.1.15,2013-02-15 17:26:00,
2013-02-15 10:32:00,30.7,25.3,30.59,West,271,0.0,1.0,80,0.00,,,0.00,Wunderground v.1.15,2013-02-15 17:32:00,
2013-02-15 10:38:00,30.7,24.7,30.59,West,271,0.0,1.0,78,0.00,,,0.00,Wunderground v.1.15,2013-02-15 17:38:00,
2013-02-15 10:43:00,30.6,25.2,30.59,West,271,0.0,0.0,80,0.00,,,0.00,Wunderground v.1.15,2013-02-15 17:43:00,
2013-02-15 10:49:00,30.7,24.7,30.59,SW,236,0.0,2.0,78,0.00,,,0.00,Wunderground v.1.15,2013-02-15 17:49:00,
2013-02-15 10:55:00,30.6,25.5,30.59,SW,236,0.0,0.0,81,0.00,,,0.00,Wunderground v.1.15,2013-02-15 17:55:00,
2013-02-15 11:00:00,30.5,24.8,30.59,SW,215,0.0,0.0,79,0.00,,,0.00,Wunderground v.1.15,2013-02-15 18:00:00,
2013-02-15 11:06:00,30.5,25.1,30.59,SW,215,0.0,0.0,80,0.00,,,0.00,Wunderground v.1.15,2013-02-15 18:06:00,
2013-02-15 11:12:00,31.3,25.8,30.59,SW,215,0.0,0.0,80,0.00,,,0.00,Wunderground v.1.15,2013-02-15 18:12:00,
2013-02-15 11:18:00,31.6,25.8,30.59,SW,215,0.0,1.0,79,0.00,,,0.00,Wunderground v.1.15,2013-02-15 18:18:00,
2013-02-15 11:24:00,31.8,25.4,30.59,NW,306,0.0,2.0,77,0.00,,,0.00,Wunderground v.1.15,2013-02-15 18:24:00,
2013-02-15 11:29:00,32.3,25.9,30.59,NW,306,1.0,2.0,77,0.00,,,0.00,Wunderground v.1.15,2013-02-15 18:29:00,
2013-02-15 11:35:00,32.7,26.3,30.59,NW,306,0.0,1.0,77,0.00,,,0.00,Wunderground v.1.15,2013-02-15 18:35:00,
2013-02-15 11:41:00,32.8,25.7,30.59,NW,311,1.0,1.0,75,0.00,,,0.00,Wunderground v.1.15,2013-02-15 18:41:00,
2013-02-15 11:46:00,32.8,26.7,30.59,NW,311,1.0,1.0,78,0.00,,,0.00,Wunderground v.1.15,2013-02-15 18:46:00,
2013-02-15 11:52:00,33.2,27.1,30.59,NW,311,0.0,0.0,78,0.00,,,0.00,Wunderground v.1.15,2013-02-15 18:52:00,
2013-02-15 11:58:00,33.4,26.3,30.59,NW,321,1.0,3.0,75,0.00,,,0.00,Wunderground v.1.15,2013-02-15 18:58:00,
2013-02-15 12:03:00,33.7,26.6,30.58,NW,321,1.0,1.0,75,0.00,,,0.00,Wunderground v.1.15,2013-02-15 19:03:00,
2013-02-15 12:09:00,34.0,26.9,30.58,NW,321,0.0,1.0,75,0.00,,,0.00,Wunderground v.1.15,2013-02-15 19:09:00,
2013-02-15 12:14:00,34.1,27.0,30.59,NW,321,0.0,1.0,75,0.00,,,0.00,Wunderground v.1.15,2013-02-15 19:14:00,
2013-02-15 12:20:00,34.1,26.3,30.59,NW,321,0.0,1.0,73,0.00,,,0.00,Wunderground v.1.15,2013-02-15 19:20:00,
2013-02-15 12:26:00,34.1,26.7,30.59,NNW,332,0.0,2.0,74,0.00,,,0.00,Wunderground v.1.15,2013-02-15 19:26:00,
2013-02-15 12:32:00,34.1,26.7,30.58,NNW,332,1.0,2.0,74,0.00,,,0.00,Wunderground v.1.15,2013-02-15 19:32:00,
2013-02-15 12:38:00,34.4,27.0,30.58,NNW,332,1.0,2.0,74,0.00,,,0.00,Wunderground v.1.15,2013-02-15 19:38:00,
2013-02-15 12:43:00,34.6,27.2,30.58,NNW,332,0.0,1.0,74,0.00,,,0.00,Wunderground v.1.15,2013-02-15 19:43:00,
2013-02-15 12:49:00,34.7,27.3,30.58,NW,306,1.0,3.0,74,0.00,,,0.00,Wunderground v.1.15,2013-02-15 19:49:00,
2013-02-15 12:55:00,35.1,27.6,30.57,NW,306,1.0,1.0,74,0.00,,,0.00,Wunderground v.1.15,2013-02-15 19:55:00,
2013-02-15 13:01:00,35.1,27.6,30.57,West,260,0.0,2.0,74,0.00,,,0.00,Wunderground v.1.15,2013-02-15 20:01:00,
2013-02-15 13:06:00,34.9,27.8,30.57,WSW,251,1.0,2.0,75,0.00,,,0.00,Wunderground v.1.15,2013-02-15 20:06:00,
2013-02-15 13:12:00,35.2,28.1,30.56,WSW,251,1.0,1.0,75,0.00,,,0.00,Wunderground v.1.15,2013-02-15 20:12:00,
2013-02-15 13:18:00,35.5,28.4,30.56,WSW,251,0.0,1.0,75,0.00,,,0.00,Wunderground v.1.15,2013-02-15 20:18:00,
2013-02-15 13:24:00,35.7,28.6,30.56,WSW,251,0.0,1.0,75,0.00,,,0.00,Wunderground v.1.15,2013-02-15 20:24:00,
2013-02-15 13:31:00,36.2,28.4,30.55,WSW,250,0.0,0.0,73,0.00,,,0.00,Wunderground v.1.15,2013-02-15 20:31:00,
2013-02-15 13:37:00,36.5,28.7,30.55,East,94,0.0,2.0,73,0.00,,,0.00,Wunderground v.1.15,2013-02-15 20:37:00,
2013-02-15 13:42:00,37.3,29.1,30.54,SSW,197,1.0,4.0,72,0.00,,,0.00,Wunderground v.1.15,2013-02-15 20:42:00,
2013-02-15 13:47:00,37.3,29.1,30.54,SE,140,2.0,4.0,72,0.00,,,0.00,Wunderground v.1.15,2013-02-15 20:47:00,
2013-02-15 13:53:00,36.9,29.1,30.54,South,189,1.0,3.0,73,0.00,,,0.00,Wunderground v.1.15,2013-02-15 20:53:00,
2013-02-15 13:59:00,36.9,28.7,30.54,South,189,1.0,3.0,72,0.00,,,0.00,Wunderground v.1.15,2013-02-15 20:59:00,
2013-02-15 14:04:00,37.0,28.8,30.54,South,189,1.0,1.0,72,0.00,,,0.00,Wunderground v.1.15,2013-02-15 21:04:00,
2013-02-15 14:10:00,37.5,28.9,30.53,SSW,198,1.0,1.0,71,0.00,,,0.00,Wunderground v.1.15,2013-02-15 21:10:00,
2013-02-15 14:16:00,37.7,29.1,30.53,SE,126,1.0,2.0,71,0.00,,,0.00,Wunderground v.1.15,2013-02-15 21:16:00,
2013-02-15 14:21:00,37.9,29.0,30.53,SE,126,0.0,0.0,70,0.00,,,0.00,Wunderground v.1.15,2013-02-15 21:21:00,
2013-02-15 14:27:00,38.1,30.2,30.53,South,184,1.0,2.0,73,0.00,,,0.00,Wunderground v.1.15,2013-02-15 21:27:00,
2013-02-15 14:33:00,38.2,29.3,30.53,South,184,0.0,0.0,70,0.00,,,0.00,Wunderground v.1.15,2013-02-15 21:33:00,
2013-02-15 14:38:00,38.5,29.2,30.52,East,98,0.0,0.0,69,0.00,,,0.00,Wunderground v.1.15,2013-02-15 21:38:00,
2013-02-15 14:44:00,38.4,29.8,30.52,East,98,0.0,0.0,71,0.00,,,0.00,Wunderground v.1.15,2013-02-15 21:44:00,
2013-02-15 14:50:00,38.3,29.0,30.52,SE,139,0.0,0.0,69,0.00,,,0.00,Wunderground v.1.15,2013-02-15 21:50:00,
2013-02-15 14:56:00,38.3,29.7,30.52,SE,139,0.0,0.0,71,0.00,,,0.00,Wunderground v.1.15,2013-02-15 21:56:00,
2013-02-15 15:02:00,38.6,28.9,30.52,SE,139,0.0,0.0,68,0.00,,,0.00,Wunderground v.1.15,2013-02-15 22:02:00,
2013-02-15 15:07:00,38.0,30.1,30.52,SE,139,0.0,1.0,73,0.00,,,0.00,Wunderground v.1.15,2013-02-15 22:07:00,
2013-02-15 15:13:00,38.1,29.5,30.51,SE,139,0.0,0.0,71,0.00,,,0.00,Wunderground v.1.15,2013-02-15 22:13:00,
2013-02-15 15:19:00,38.4,29.1,30.51,SE,145,0.0,0.0,69,0.00,,,0.00,Wunderground v.1.15,2013-02-15 22:19:00,
2013-02-15 15:25:00,38.2,29.6,30.51,SE,145,0.0,0.0,71,0.00,,,0.00,Wunderground v.1.15,2013-02-15 22:25:00,
2013-02-15 15:30:00,38.3,29.0,30.51,SE,145,0.0,0.0,69,0.00,,,0.00,Wunderground v.1.15,2013-02-15 22:30:00,
2013-02-15 15:36:00,38.3,29.4,30.51,SE,145,0.0,0.0,70,0.00,,,0.00,Wunderground v.1.15,2013-02-15 22:36:00,
2013-02-15 15:41:00,38.3,29.0,30.51,SE,145,0.0,0.0,69,0.00,,,0.00,Wunderground v.1.15,2013-02-15 22:41:00,
2013-02-15 15:47:00,38.2,29.3,30.51,SE,145,0.0,0.0,70,0.00,,,0.00,Wunderground v.1.15,2013-02-15 22:47:00,
2013-02-15 15:53:00,38.2,29.3,30.51,SE,145,0.0,0.0,70,0.00,,,0.00,Wunderground v.1.15,2013-02-15 22:53:00,
2013-02-15 15:58:00,38.2,29.3,30.50,SE,145,0.0,0.0,70,0.00,,,0.00,Wunderground v.1.15,2013-02-15 22:58:00,
2013-02-15 16:04:00,38.6,29.3,30.50,SE,145,0.0,0.0,69,0.00,,,0.00,Wunderground v.1.15,2013-02-15 23:04:00,
2013-02-15 16:10:00,38.5,29.6,30.50,SE,145,0.0,0.0,70,0.00,,,0.00,Wunderground v.1.15,2013-02-15 23:10:00,
2013-02-15 16:16:00,38.6,29.3,30.50,SE,145,0.0,0.0,69,0.00,,,0.00,Wunderground v.1.15,2013-02-15 23:16:00,
2013-02-15 16:21:00,38.4,29.5,30.50,SE,145,0.0,1.0,70,0.00,,,0.00,Wunderground v.1.15,2013-02-15 23:21:00,
2013-02-15 16:26:00,38.3,29.7,30.50,SE,145,0.0,1.0,71,0.00,,,0.00,Wunderground v.1.15,2013-02-15 23:26:00,
2013-02-15 16:32:00,38.2,29.3,30.50,SE,145,0.0,1.0,70,0.00,,,0.00,Wunderground v.1.15,2013-02-15 23:32:00,
2013-02-15 16:38:00,38.4,29.5,30.50,SSE,153,1.0,2.0,70,0.00,,,0.00,Wunderground v.1.15,2013-02-15 23:38:00,
2013-02-15 16:44:00,38.3,29.4,30.49,SSE,153,0.0,1.0,70,0.00,,,0.00,Wunderground v.1.15,2013-02-15 23:44:00,
2013-02-15 16:50:00,38.4,29.5,30.49,SSE,153,0.0,0.0,70,0.00,,,0.00,Wunderground v.1.15,2013-02-15 23:50:00,
2013-02-15 16:55:00,38.2,29.3,30.49,SSE,153,0.0,0.0,70,0.00,,,0.00,Wunderground v.1.15,2013-02-15 23:55:00,
2013-02-15 17:00:00,38.2,29.3,30.49,SSE,153,0.0,0.0,70,0.00,,,0.00,Wunderground v.1.15,2013-02-16 00:00:00,
2013-02-15 17:06:00,38.1,29.5,30.49,SSE,153,0.0,0.0,71,0.00,,,0.00,Wunderground v.1.15,2013-02-16 00:06:00,
2013-02-15 17:11:00,38.2,29.3,30.49,SSE,153,0.0,0.0,70,0.00,,,0.00,Wunderground v.1.15,2013-02-16 00:11:00,
2013-02-15 17:17:00,38.0,29.4,30.49,SSE,153,0.0,0.0,71,0.00,,,0.00,Wunderground v.1.15,2013-02-16 00:17:00,
2013-02-15 17:23:00,37.7,29.8,30.48,SSE,153,0.0,0.0,73,0.00,,,0.00,Wunderground v.1.15,2013-02-16 00:23:00,
2013-02-15 17:28:00,37.5,29.6,30.49,SSE,153,0.0,0.0,73,0.00,,,0.00,Wunderground v.1.15,2013-02-16 00:28:00,
2013-02-15 17:34:00,37.5,29.3,30.48,SSE,153,0.0,0.0,72,0.00,,,0.00,Wunderground v.1.15,2013-02-16 00:34:00,
2013-02-15 17:40:00,37.3,29.1,30.48,SSE,153,0.0,0.0,72,0.00,,,0.00,Wunderground v.1.15,2013-02-16 00:40:00,
2013-02-15 17:46:00,37.2,29.3,30.48,SSE,153,0.0,0.0,73,0.00,,,0.00,Wunderground v.1.15,2013-02-16 00:46:00,
2013-02-15 17:51:00,37.0,29.5,30.48,SSE,153,0.0,0.0,74,0.00,,,0.00,Wunderground v.1.15,2013-02-16 00:51:00,
2013-02-15 17:57:00,37.0,29.1,30.47,SSE,153,0.0,0.0,73,0.00,,,0.00,Wunderground v.1.15,2013-02-16 00:57:00,
2013-02-15 18:03:00,37.1,29.2,30.47,SSE,153,0.0,0.0,73,0.00,,,0.00,Wunderground v.1.15,2013-02-16 01:03:00,
2013-02-15 18:09:00,37.0,29.1,30.47,SSE,153,0.0,0.0,73,0.00,,,0.00,Wunderground v.1.15,2013-02-16 01:09:00,
2013-02-15 18:15:00,36.6,29.4,30.47,SSE,153,0.0,0.0,75,0.00,,,0.00,Wunderground v.1.15,2013-02-16 01:15:00,
2013-02-15 18:21:00,36.2,29.0,30.47,SSE,153,0.0,0.0,75,0.00,,,0.00,Wunderground v.1.15,2013-02-16 01:21:00,
2013-02-15 18:27:00,36.2,29.0,30.46,SSE,153,0.0,0.0,75,0.00,,,0.00,Wunderground v.1.15,2013-02-16 01:27:00,
2013-02-15 18:32:00,36.2,29.4,30.46,SSE,153,0.0,0.0,76,0.00,,,0.00,Wunderground v.1.15,2013-02-16 01:32:00,
2013-02-15 18:38:00,36.1,29.3,30.46,SSE,153,0.0,0.0,76,0.00,,,0.00,Wunderground v.1.15,2013-02-16 01:38:00,
2013-02-15 18:44:00,35.9,29.4,30.46,SSE,153,0.0,0.0,77,0.00,,,0.00,Wunderground v.1.15,2013-02-16 01:44:00,
2013-02-15 18:49:00,35.5,29.3,30.47,SSE,153,0.0,0.0,78,0.00,,,0.00,Wunderground v.1.15,2013-02-16 01:49:00,
2013-02-15 18:54:00,35.3,28.8,30.47,SSE,153,0.0,0.0,77,0.00,,,0.00,Wunderground v.1.15,2013-02-16 01:54:00,
2013-02-15 19:00:00,35.3,28.8,30.47,SSE,153,0.0,0.0,77,0.00,,,0.00,Wunderground v.1.15,2013-02-16 02:00:00,
2013-02-15 19:05:00,35.3,28.8,30.46,SSE,153,0.0,0.0,77,0.00,,,0.00,Wunderground v.1.15,2013-02-16 02:05:00,
2013-02-15 19:11:00,35.6,29.1,30.46,SSE,153,0.0,0.0,77,0.00,,,0.00,Wunderground v.1.15,2013-02-16 02:11:00,
2013-02-15 19:17:00,35.8,29.3,30.46,SSE,153,0.0,0.0,77,0.00,,,0.00,Wunderground v.1.15,2013-02-16 02:17:00,
2013-02-15 19:23:00,35.4,29.2,30.46,SSE,153,0.0,0.0,78,0.00,,,0.00,Wunderground v.1.15,2013-02-16 02:23:00,
2013-02-15 19:29:00,35.2,28.7,30.45,SSE,153,0.0,0.0,77,0.00,,,0.00,Wunderground v.1.15,2013-02-16 02:29:00,
2013-02-15 19:35:00,35.1,28.9,30.45,SSE,153,0.0,0.0,78,0.00,,,0.00,Wunderground v.1.15,2013-02-16 02:35:00,
2013-02-15 19:40:00,35.0,28.8,30.45,SSE,153,0.0,0.0,78,0.00,,,0.00,Wunderground v.1.15,2013-02-16 02:40:00,
2013-02-15 19:46:00,35.0,29.1,30.45,SSE,153,0.0,0.0,79,0.00,,,0.00,Wunderground v.1.15,2013-02-16 02:46:00,
2013-02-15 19:52:00,34.8,29.3,30.44,SSE,153,0.0,0.0,80,0.00,,,0.00,Wunderground v.1.15,2013-02-16 02:52:00,
2013-02-15 19:58:00,35.1,28.9,30.44,SSE,153,0.0,0.0,78,0.00,,,0.00,Wunderground v.1.15,2013-02-16 02:58:00,
2013-02-15 20:04:00,35.2,29.3,30.45,SSE,153,0.0,0.0,79,0.00,,,0.00,Wunderground v.1.15,2013-02-16 03:04:00,
2013-02-15 20:10:00,35.1,29.2,30.44,SSE,153,0.0,0.0,79,0.00,,,0.00,Wunderground v.1.15,2013-02-16 03:10:00,
2013-02-15 20:15:00,35.0,29.1,30.44,SSE,153,0.0,0.0,79,0.00,,,0.00,Wunderground v.1.15,2013-02-16 03:15:00,
2013-02-15 20:21:00,34.9,29.0,30.44,SSE,153,0.0,0.0,79,0.00,,,0.00,Wunderground v.1.15,2013-02-16 03:21:00,
2013-02-15 20:27:00,34.8,29.3,30.44,SSE,153,0.0,0.0,80,0.00,,,0.00,Wunderground v.1.15,2013-02-16 03:27:00,
2013-02-15 20:32:00,34.8,29.3,30.44,SSE,153,0.0,1.0,80,0.00,,,0.00,Wunderground v.1.15,2013-02-16 03:32:00,
2013-02-15 20:38:00,34.7,29.2,30.43,SSE,153,0.0,1.0,80,0.00,,,0.00,Wunderground v.1.15,2013-02-16 03:38:00,
2013-02-15 20:44:00,34.8,29.0,30.43,SSE,153,0.0,0.0,79,0.00,,,0.00,Wunderground v.1.15,2013-02-16 03:44:00,
2013-02-15 20:50:00,34.9,29.0,30.43,SSE,153,0.0,0.0,79,0.00,,,0.00,Wunderground v.1.15,2013-02-16 03:50:00,
2013-02-15 20:56:00,34.7,29.2,30.43,SSE,153,0.0,0.0,80,0.00,,,0.00,Wunderground v.1.15,2013-02-16 03:56:00,
2013-02-15 21:01:00,34.6,28.8,30.43,SSE,153,0.0,0.0,79,0.00,,,0.00,Wunderground v.1.15,2013-02-16 04:01:00,
2013-02-15 21:06:00,34.4,28.9,30.43,SSE,153,0.0,0.0,80,0.00,,,0.00,Wunderground v.1.15,2013-02-16 04:06:00,
2013-02-15 21:12:00,34.3,28.5,30.42,SSE,153,0.0,0.0,79,0.00,,,0.00,Wunderground v.1.15,2013-02-16 04:12:00,
2013-02-15 21:18:00,34.5,28.7,30.42,SSE,153,0.0,0.0,79,0.00,,,0.00,Wunderground v.1.15,2013-02-16 04:18:00,
2013-02-15 21:24:00,34.6,29.1,30.42,SSE,153,0.0,0.0,80,0.00,,,0.00,Wunderground v.1.15,2013-02-16 04:24:00,
2013-02-15 21:30:00,34.4,29.2,30.42,SSE,153,0.0,0.0,81,0.00,,,0.00,Wunderground v.1.15,2013-02-16 04:30:00,
2013-02-15 21:35:00,34.3,29.1,30.42,SSE,153,0.0,0.0,81,0.00,,,0.00,Wunderground v.1.15,2013-02-16 04:35:00,
2013-02-15 21:41:00,34.1,29.2,30.42,SSE,153,0.0,0.0,82,0.00,,,0.00,Wunderground v.1.15,2013-02-16 04:41:00,
2013-02-15 21:47:00,34.0,29.1,30.42,SSE,153,0.0,0.0,82,0.00,,,0.00,Wunderground v.1.15,2013-02-16 04:47:00,
2013-02-15 21:53:00,33.9,29.0,30.42,SSE,153,0.0,0.0,82,0.00,,,0.00,Wunderground v.1.15,2013-02-16 04:53:00,
2013-02-15 21:59:00,34.0,28.8,30.42,SSE,153,0.0,0.0,81,0.00,,,0.00,Wunderground v.1.15,2013-02-16 04:59:00,
2013-02-15 22:00:00,34.0,28.8,30.42,SSE,153,0.0,0.0,81,0.00,,,0.00,Wunderground v.1.15,2013-02-16 05:00:00,
2013-02-15 22:01:00,34.0,28.8,30.42,SSE,153,0.0,0.0,81,0.00,,,0.00,Wunderground v.1.15,2013-02-16 05:01:00,
2013-02-15 22:03:00,34.0,28.8,30.42,SSE,153,0.0,0.0,81,0.00,,,0.00,Wunderground v.1.15,2013-02-16 05:03:00,
2013-02-15 22:09:00,33.9,29.0,30.41,SSE,153,0.0,0.0,82,0.00,,,0.00,Wunderground v.1.15,2013-02-16 05:09:00,
2013-02-15 22:13:00,33.9,28.7,30.42,SSE,153,0.0,0.0,81,0.00,,,0.00,Wunderground v.1.15,2013-02-16 05:13:00,
2013-02-15 22:18:00,33.6,28.1,30.41,SSE,153,0.0,0.0,80,0.00,,,0.00,Wunderground v.1.15,2013-02-16 05:18:00,
2013-02-15 22:23:00,33.3,28.7,30.41,SSE,153,0.0,0.0,83,0.00,,,0.00,Wunderground v.1.15,2013-02-16 05:23:00,
2013-02-15 22:29:00,32.9,28.3,30.41,SSE,153,0.0,0.0,83,0.00,,,0.00,Wunderground v.1.15,2013-02-16 05:29:00,
2013-02-15 22:34:00,32.8,28.5,30.41,SSE,153,0.0,0.0,84,0.00,,,0.00,Wunderground v.1.15,2013-02-16 05:34:00,
2013-02-15 22:40:00,32.8,27.9,30.41,SSE,153,0.0,0.0,82,0.00,,,0.00,Wunderground v.1.15,2013-02-16 05:40:00,
2013-02-15 22:46:00,32.6,28.3,30.41,SSE,153,0.0,0.0,84,0.00,,,0.00,Wunderground v.1.15,2013-02-16 05:46:00,
2013-02-15 22:52:00,32.4,27.8,30.41,SSE,153,0.0,0.0,83,0.00,,,0.00,Wunderground v.1.15,2013-02-16 05:52:00,
2013-02-15 22:58:00,32.2,28.2,30.41,SSE,153,0.0,0.0,85,0.00,,,0.00,Wunderground v.1.15,2013-02-16 05:58:00,
2013-02-15 23:03:00,31.8,28.1,30.41,SSE,153,0.0,0.0,86,0.00,,,0.00,Wunderground v.1.15,2013-02-16 06:03:00,
2013-02-15 23:09:00,31.4,28.0,30.41,SSE,153,0.0,1.0,87,0.00,,,0.00,Wunderground v.1.15,2013-02-16 06:09:00,
2013-02-15 23:14:00,31.1,28.0,30.41,SSE,153,0.0,0.0,88,0.00,,,0.00,Wunderground v.1.15,2013-02-16 06:14:00,
2013-02-15 23:20:00,31.0,27.9,30.40,SSE,153,0.0,0.0,88,0.00,,,0.00,Wunderground v.1.15,2013-02-16 06:20:00,
2013-02-15 23:26:00,30.7,27.6,30.40,SSE,153,0.0,0.0,88,0.00,,,0.00,Wunderground v.1.15,2013-02-16 06:26:00,
2013-02-15 23:32:00,30.2,27.1,30.40,SSE,153,0.0,0.0,88,0.00,,,0.00,Wunderground v.1.15,2013-02-16 06:32:00,
2013-02-15 23:38:00,29.9,26.8,30.40,SSE,153,0.0,0.0,88,0.00,,,0.00,Wunderground v.1.15,2013-02-16 06:38:00,
2013-02-15 23:44:00,30.1,27.3,30.40,SSE,153,0.0,0.0,89,0.00,,,0.00,Wunderground v.1.15,2013-02-16 06:44:00,
2013-02-15 23:49:00,30.5,27.6,30.40,SSE,153,0.0,0.0,89,0.00,,,0.00,Wunderground v.1.15,2013-02-16 06:49:00,
2013-02-15 23:55:00,30.6,27.5,30.40,SSE,153,0.0,0.0,88,0.00,,,0.00,Wunderground v.1.15,2013-02-16 06:55:00,